TimeEDT,TemperatureF,Dew PointF,Humidity,Sea Level PressureIn,VisibilityMPH,Wind Direction,Wind SpeedMPH,Gust SpeedMPH,PrecipitationIn,Events,Conditions,WindDirDegrees,DateUTC
12:15 AM,59.0,50.0,72,29.88,10.0,NE,5.8,-,N/A,,Clear,50,2012-10-28 04:15:00
12:35 AM,59.0,50.0,72,29.88,10.0,NE,5.8,-,N/A,,Clear,50,2012-10-28 04:35:00
12:55 AM,59.0,51.8,77,29.88,10.0,NE,4.6,-,N/A,,Clear,40,2012-10-28 04:55:00
1:15 AM,59.0,51.8,77,29.87,10.0,NE,6.9,-,N/A,,Clear,50,2012-10-28 05:15:00
1:35 AM,59.0,53.6,82,29.86,10.0,NNE,4.6,-,N/A,,Clear,20,2012-10-28 05:35:00
2:15 AM,59.0,53.6,82,29.86,10.0,NE,5.8,-,N/A,,Clear,40,2012-10-28 06:15:00
2:35 AM,59.0,53.6,82,29.86,10.0,NE,5.8,-,N/A,,Clear,40,2012-10-28 06:35:00
2:55 AM,59.0,53.6,82,29.85,10.0,NNE,4.6,-,N/A,,Clear,30,2012-10-28 06:55:00
3:15 AM,59.0,53.6,82,29.85,10.0,NNE,5.8,-,N/A,,Clear,30,2012-10-28 07:15:00
3:35 AM,59.0,51.8,77,29.84,10.0,NE,5.8,-,N/A,,Clear,40,2012-10-28 07:35:00
3:55 AM,59.0,51.8,77,29.85,10.0,ENE,8.1,-,N/A,,Clear,60,2012-10-28 07:55:00
4:15 AM,59.0,51.8,77,29.85,10.0,ENE,8.1,-,N/A,,Clear,60,2012-10-28 08:15:00
4:35 AM,59.0,51.8,77,29.85,10.0,ENE,5.8,-,N/A,,Clear,60,2012-10-28 08:35:00
4:55 AM,57.2,51.8,82,29.85,10.0,NE,6.9,-,N/A,,Scattered Clouds,50,2012-10-28 08:55:00
5:15 AM,57.2,51.8,82,29.84,10.0,NNE,5.8,-,N/A,,Overcast,20,2012-10-28 09:15:00
5:35 AM,55.4,51.8,88,29.84,10.0,NNE,3.5,-,N/A,,Overcast,30,2012-10-28 09:35:00
5:55 AM,55.4,51.8,88,29.83,10.0,NNE,3.5,-,0.01,,Scattered Clouds,30,2012-10-28 09:55:00
6:15 AM,55.4,50.0,82,29.83,10.0,NNE,4.6,-,N/A,,Mostly Cloudy,30,2012-10-28 10:15:00
6:35 AM,55.4,50.0,82,29.82,10.0,NNE,5.8,-,0.01,,Overcast,30,2012-10-28 10:35:00
6:55 AM,53.6,50.0,88,29.82,10.0,NE,4.6,-,0.02,,Overcast,40,2012-10-28 10:55:00
7:15 AM,53.6,50.0,88,29.82,7.0,NE,5.8,-,0.02,,Overcast,40,2012-10-28 11:15:00
7:35 AM,53.6,48.2,82,29.83,7.0,NNE,4.6,-,0.04,,Overcast,30,2012-10-28 11:35:00
7:55 AM,53.6,48.2,82,29.83,10.0,North,3.5,-,0.04,,Mostly Cloudy,10,2012-10-28 11:55:00
8:15 AM,53.6,46.4,77,29.83,10.0,NE,4.6,-,N/A,,Clear,40,2012-10-28 12:15:00
8:35 AM,53.6,46.4,77,29.84,10.0,NNE,3.5,-,N/A,,Scattered Clouds,30,2012-10-28 12:35:00
8:55 AM,53.6,46.4,77,29.84,10.0,NNE,5.8,-,N/A,,Scattered Clouds,30,2012-10-28 12:55:00
9:15 AM,53.6,44.6,72,29.85,10.0,NE,4.6,-,0.01,,Clear,40,2012-10-28 13:15:00
9:35 AM,55.4,44.6,67,29.84,10.0,NE,4.6,-,0.01,,Scattered Clouds,40,2012-10-28 13:35:00
9:55 AM,55.4,44.6,67,29.84,10.0,NE,6.9,-,0.01,,Mostly Cloudy,40,2012-10-28 13:55:00
10:15 AM,55.4,44.6,67,29.83,10.0,NE,5.8,-,N/A,,Overcast,40,2012-10-28 14:15:00
10:35 AM,55.4,44.6,67,29.82,10.0,NE,6.9,-,N/A,,Overcast,40,2012-10-28 14:35:00
10:55 AM,55.4,44.6,67,29.81,10.0,NE,6.9,-,N/A,,Overcast,50,2012-10-28 14:55:00
11:15 AM,55.4,46.4,72,29.81,10.0,NE,9.2,16.1,N/A,,Overcast,50,2012-10-28 15:15:00
11:35 AM,55.4,46.4,72,29.80,10.0,NE,4.6,-,N/A,,Mostly Cloudy,40,2012-10-28 15:35:00
11:55 AM,55.4,46.4,72,29.80,10.0,NE,5.8,-,N/A,,Mostly Cloudy,50,2012-10-28 15:55:00
12:15 PM,55.4,46.4,72,29.78,10.0,NE,9.2,-,N/A,,Mostly Cloudy,40,2012-10-28 16:15:00
12:35 PM,57.2,46.4,67,29.76,10.0,NE,8.1,-,N/A,,Mostly Cloudy,40,2012-10-28 16:35:00
12:55 PM,57.2,46.4,67,29.76,10.0,NE,10.4,-,N/A,,Mostly Cloudy,50,2012-10-28 16:55:00
1:15 PM,57.2,46.4,67,29.75,10.0,NE,8.1,-,N/A,,Mostly Cloudy,40,2012-10-28 17:15:00
1:35 PM,57.2,46.4,67,29.75,10.0,NE,6.9,-,N/A,,Mostly Cloudy,40,2012-10-28 17:35:00
1:55 PM,57.2,46.4,67,29.74,10.0,NE,10.4,-,N/A,,Overcast,50,2012-10-28 17:55:00
2:15 PM,57.2,48.2,72,29.73,10.0,NE,8.1,-,N/A,,Overcast,50,2012-10-28 18:15:00
2:35 PM,57.2,48.2,72,29.73,10.0,NE,8.1,19.6,N/A,,Overcast,50,2012-10-28 18:35:00
2:55 PM,57.2,48.2,72,29.72,10.0,NE,9.2,17.3,N/A,,Mostly Cloudy,50,2012-10-28 18:55:00
3:15 PM,59.0,48.2,67,29.72,10.0,NE,8.1,18.4,N/A,,Mostly Cloudy,40,2012-10-28 19:15:00
3:35 PM,59.0,48.2,67,29.72,10.0,NNE,6.9,18.4,N/A,,Mostly Cloudy,20,2012-10-28 19:35:00
3:55 PM,57.2,50.0,77,29.72,10.0,NE,8.1,18.4,N/A,,Mostly Cloudy,50,2012-10-28 19:55:00
4:15 PM,55.4,50.0,82,29.71,10.0,NNE,5.8,-,N/A,,Mostly Cloudy,30,2012-10-28 20:15:00
4:35 PM,55.4,50.0,82,29.70,5.0,NE,5.8,-,0.02,,Overcast,40,2012-10-28 20:35:00
4:55 PM,55.4,51.8,88,29.70,10.0,NNE,6.9,-,0.03,,Mostly Cloudy,30,2012-10-28 20:55:00
5:15 PM,55.4,51.8,88,29.68,10.0,NNE,6.9,16.1,N/A,,Scattered Clouds,30,2012-10-28 21:15:00
5:35 PM,55.4,50.0,82,29.70,10.0,NE,6.9,-,N/A,,Scattered Clouds,40,2012-10-28 21:35:00
5:55 PM,55.4,50.0,82,29.69,10.0,NNE,6.9,16.1,N/A,,Mostly Cloudy,30,2012-10-28 21:55:00
6:15 PM,55.4,51.8,88,29.69,7.0,NE,9.2,16.1,0.02,,Overcast,50,2012-10-28 22:15:00
6:35 PM,53.6,51.8,94,29.69,10.0,NE,4.6,-,0.04,,Mostly Cloudy,50,2012-10-28 22:35:00
6:55 PM,53.6,51.8,94,29.68,7.0,NNE,6.9,-,0.05,,Mostly Cloudy,30,2012-10-28 22:55:00
7:15 PM,53.6,51.8,94,29.68,10.0,North,5.8,-,N/A,,Overcast,10,2012-10-28 23:15:00
7:35 PM,53.6,51.8,94,29.68,10.0,NNE,4.6,-,N/A,,Mostly Cloudy,30,2012-10-28 23:35:00
7:55 PM,53.6,51.8,94,29.69,10.0,NE,6.9,-,N/A,,Mostly Cloudy,40,2012-10-28 23:55:00
8:15 PM,53.6,51.8,94,29.69,5.0,NNE,9.2,-,0.03,,Mostly Cloudy,30,2012-10-29 00:15:00
8:35 PM,53.6,51.8,94,29.67,10.0,NE,9.2,-,0.03,,Mostly Cloudy,40,2012-10-29 00:35:00
9:15 PM,55.4,50.0,82,29.66,10.0,NNE,9.2,16.1,N/A,,Mostly Cloudy,30,2012-10-29 01:15:00
9:35 PM,55.4,50.0,82,29.65,10.0,NE,8.1,-,N/A,,Overcast,40,2012-10-29 01:35:00
9:55 PM,55.4,50.0,82,29.64,10.0,NNE,8.1,19.6,N/A,,Mostly Cloudy,20,2012-10-29 01:55:00
10:15 PM,55.4,50.0,82,29.64,10.0,NE,13.8,20.7,N/A,,Mostly Cloudy,50,2012-10-29 02:15:00
10:35 PM,55.4,48.2,77,29.65,10.0,NE,10.4,18.4,N/A,,Overcast,50,2012-10-29 02:35:00
10:55 PM,55.4,48.2,77,29.64,10.0,NE,6.9,-,N/A,,Overcast,40,2012-10-29 02:55:00
11:15 PM,57.2,48.2,72,29.63,10.0,NE,8.1,-,N/A,,Overcast,40,2012-10-29 03:15:00
11:35 PM,55.4,48.2,77,29.62,10.0,NNE,8.1,-,N/A,,Overcast,30,2012-10-29 03:35:00
11:55 PM,55.4,48.2,77,29.62,10.0,NE,11.5,17.3,N/A,,Overcast,40,2012-10-29 03:55:00